sat.trackr.live / text

‹ back to catalog

STARLINK-32126

NORAD 60295 · 2024-132T

PAYLOAD ACTIVE UNKNOWN

§ Identity

Operator
Country
US
Launch date
2024-07-28
Launch site
AFETR
Launch vehicle
Mass (kg)
RCS (m²)

Purposes: comms

External: N2YO · Heavens-Above · Gunter

§ Orbital elements

Epoch: 2026-09-21T11:26:24.469440Z

Period
94.01 min
Inclination
53.1591°
Eccentricity
0.0001033
Mean motion
15.31696719 rev/d
Perigee alt
470.0 km
Apogee alt
471.5 km
Semi-major
6,848.9 km
B*
-1.1200e-5
RAAN
221.7842°
Arg perigee
100.1927°
Mean anomaly
259.9191°
Rev number
12,155

§ Raw data

STARLINK-321261 60295U 24132T   26264.47667210 -.00000712  00000+0 -11200-4 0  99962 60295  53.1591 221.7842 0001033 100.1927 259.9191 15.31696719121559

JSON: /api/v1/satellites/60295 · /tle

For live sub-satellite position, see the globe view (requires WebGL).

§ Visibility from observer

Set your observer location to see the next 7 days of passes ≥ 10°. The values pass through the URL so the page stays shareable.

No JS? Fill the form by hand. The geolocation button needs JavaScript.